Regional Weather Roundup
Issued by NWS Green Bay, WI

Home | Current Version | Previous Version | Graphics & Text | Print | Product List | Glossary Off
Versions: 1 2 3 4 5 6 7 8 9 10 11 12 13 14 15 16 17 18 19 20 21 22 23 24 25 26 27 28 29 30 31 32 33 34 35 36 37 38 39 40 41 42 43 44 45 46 47 48 49 50

483
ASUS43 KGRB 201811
RWRGRB

NORTH-CENTRAL AND NORTHEAST WISCONSIN REGIONAL WEATHER ROUNDUP
NATIONAL WEATHER SERVICE GREEN BAY WI
100 PM CDT SUN AUG 20 2017

WIZ005-009-010>012-018-019-201900-
NORTH CENTRAL WISCONSIN

CITY           SKY/WX    TMP DP  RH WIND       PRES   REMARKS
IRONWOOD       MOSUNNY   80  65  59 SW15      29.88F
MANITOWISH WTR PTSUNNY   79  67  65 SW14G20   29.92F
ARBOR VITAE    MOSUNNY   80  66  62 SW10G18   29.93F
EAGLE RIVER    MOSUNNY   77  61  58 SW13G21   29.94F
LAND O LAKES   MOSUNNY   78  62  58 SW13G21   29.95F
RHINELANDER    PTSUNNY   78  65  63 SW17      29.97F
PHILLIPS       MOSUNNY   77  67  69 SW12G18   29.93S
ANTIGO         CLOUDY    76  65  70 SW14G20   29.99F
TOMAHAWK         N/A     78  65  64 S3        29.96F
MERRILL        NOT AVBL
$$

WIZ013-073-201900-
NORTHEAST WISCONSIN

CITY           SKY/WX    TMP DP  RH WIND       PRES   REMARKS
IRON MOUNTAIN  MOSUNNY   80  61  52 S13G22    29.94F
MARINETTE      CLOUDY    78  66  66 SW12G18   29.98F
OCONTO         CLOUDY    79  65  63 S7        29.97F
$$

WIZ017-030-035>037-045-201900-
CENTRAL WISCONSIN

CITY           SKY/WX    TMP DP  RH WIND       PRES   REMARKS
MEDFORD        CLOUDY    75  66  74 SW10      29.97F
WAUSAU         CLOUDY    77  66  68 S9G20     29.96F
MOSINEE        PTSUNNY   75  66  73 S10G18    29.99F
MARSHFIELD     CLOUDY    78  64  61 SW12      29.97F
WISC RAPIDS    CLOUDY    77  67  71 SW9       29.99F
STEVENS POINT  CLOUDY    76  64  67 S10G17    29.98F
WAUPACA        CLOUDY    80  65  61 S10G16    29.98F
SHAWANO        MOSUNNY   79  64  59 S8        29.97F
CLINTONVILLE   CLOUDY    79  63  57 S10       29.98F
WAUTOMA        CLOUDY    78  68  71 SW9       29.99F
$$

WIZ038-039-048-051-201900-
FOX VALLEY

CITY           SKY/WX    TMP DP  RH WIND       PRES   REMARKS
NWS GREEN BAY  CLOUDY    77  67  71 S7        29.99F
APPLETON       CLOUDY    79  61  53 SW13      30.01S
OSHKOSH        PTSUNNY   77  66  68 S8        29.99F
FOND DU LAC    PTSUNNY   78  64  61 S10       30.00F
$$

WIZ022-050-052-201900-
EAST CENTRAL WISCONSIN

CITY           SKY/WX    TMP DP  RH WIND       PRES   REMARKS
EPHRAIM        FAIR      77  65  67 SW5       29.98F
WASHINGTON ISL FAIR      74  65  74 S8        29.97F
STURGEON BAY   CLOUDY    77  64  64 S14       29.99F
MANITOWOC      CLOUDY    79  63  57 S6        30.01F
SHEBOYGAN      CLOUDY    80  67  64 SW8       30.01F
$$

LMZ563-521-522-541>543-201900-
LAKESHORE

STATION/POSITION TIME  TEMP    WIND        PRES    VSBY  WAVE
                       AIR SEA DIR/SP/G                  HT/PER
                 (UTC) (F)     (DEG/KT/KT) (MB)    (MI)  (FT/S)
SHEBOYGAN LKSHOR 1800   71     160/ 12/ 13 1015.8F
KEWAUNEE LKSHORE 1748   69     190/  8/ 10 1015.3F
NORTHPORT PIER   1740   74     150/  9/ 14 1014.9F
N MID LAKE BUOY  1750   69 67  190/ 14/ 16 1016.1F         2/ 4
S GREEN BAY BUOY 1800   74 72  200/ 12/ 14 1014.9
SISTER BAY LKSHO 1718   79     240/ 10/ 13   N/A
MENOMINEE LKSHOR 1748   75     180/  8/ 13 1014.8F
$$




USA.gov is the U.S. government's official web portal to all federal, state and local government web resources and services.